Regional Weather Roundup
Issued by NWS

Home | Current Version | Previous Version | Text Only | Print | Product List | Glossary On
Versions: 1 2 3 4 5 6 7 8 9 10 11 12 13 14 15 16 17 18 19 20 21 22 23 24 25 26 27 28 29 30 31 32 33 34 35 36 37 38 39 40 41 42 43 44 45 46 47 48 49 50
693
ASUS46 KSEW 100510
RWRWA

WASHINGTON REGIONAL WEATHER ROUNDUP
NATIONAL WEATHER SERVICE SEATTLE WA
900 PM PST TUE FEB 09 2016

NOTE:"FAIR" INDICATES FEW OR NO CLOUDS BELOW 12,000 FEET WITH NO
SIGNIFICANT WEATHER AND/OR OBSTRUCTIONS TO VISIBILITY.

WAZ505-507>509-100600-
SEATTLE, TACOMA, EVERETT, AND VICINITY

CITY           SKY/WX    TMP DP  RH WIND       PRES   REMARKS
EVERETT        MOCLDY    57  38  48 VRB6      30.11F
BOEING FIELD   MOCLDY    54  42  64 SE3       30.11F
RENTON         MOCLDY    53  42  66 SE5       30.11F
SEATAC AIRPORT MOCLDY    55  40  56 SE3       30.12F
JBLM-MCCHORD   PTCLDY    43  43 100 CALM      30.11S
PUYALLUP       FAIR      46  46 100 CALM      30.11F
BREMERTON      PTCLDY    41  41 100 CALM      30.16R
JBLM-FT LEWIS  PTCLDY    47  47 100 CALM      30.10S
TACOMA NARROWS PTCLDY    53  44  71 CALM      30.11S
$$

WAZ001-503-506-510-514-515-100600-
NORTH INTERIOR

CITY           SKY/WX    TMP DP  RH WIND       PRES   REMARKS
BELLINGHAM     MOCLDY    42  37  82 CALM      30.09F
FRIDAY HARBOR  MOCLDY    42  40  92 CALM      30.10F
EASTSOUND      MOCLDY    41  41 100 CALM      30.08F
PORT ANGELES   PTCLDY    42  40  92 CALM      30.09S
EDIZ HOOK      FAIR      45  43  95 N3        30.09S
PORT TOWNSEND  FAIR      43  43 100 E7        30.09F
NAS WHIDBEY    MOCLDY    43  42  97 SE7       30.12F
ARLINGTON      MOCLDY    45  37  76 CALM      30.13S
BURLINGTON     CLEAR     45  41  87 CALM      30.10F
$$

WAZ020-022-039-040-504-511-512-100600-
SOUTHWEST INTERIOR

CITY           SKY/WX    TMP DP  RH WIND       PRES   REMARKS
SHELTON        PTCLDY    38  37  97 SW5       30.09S FOG
OLYMPIA        PTCLDY    43  42  97 S3        30.11F FOG
CHEHALIS       FAIR      48  45  87 SW6       30.11S
KELSO          MOCLDY    52  37  58 SE7       30.17R
VANCOUVER      MOCLDY    48  39  71 CALM      30.15S
SCAPPOOSE, OR  MOCLDY    43  41  93 W3        30.15S
PORTLAND, OR   MOCLDY    50  39  66 E9        30.15S
$$

WAZ021-516-517-100600-
WASHINGTON COAST

CITY           SKY/WX    TMP DP  RH WIND       PRES   REMARKS
FORKS          CLEAR     48  44  86 CALM      30.08S
HOQUIAM        CLEAR     50  45  83 CALM      30.11R
ASTORIA, OR    CLEAR     49  43  80 CALM      30.10F
$$

WAZ019-023-024-040-518-519-100600-
CASCADE MOUNTAINS AND COLUMBIA GORGE

CITY           SKY/WX    TMP DP  RH WIND       PRES   REMARKS
STAMPEDE PASS  NOT AVBL
TROUTDALE, OR  MOCLDY    52  38  58 E23G32    30.14F
THE DALLES, OR MOCLDY    41  35  79 E5        30.29F
$$

WAZ026-027-041>044-520-521-100600-
EAST SLOPES

CITY           SKY/WX    TMP DP  RH WIND       PRES   REMARKS
OMAK           MOCLDY    26  24  92 CALM      30.30F
WENATCHEE      PTCLDY    34  30  85 NW3       30.27F
ELLENSBURG     PTCLDY    29  24  82 N3        30.26F
YAKIMA         PTCLDY    35  30  82 W6        30.28S
$$

WAZ028-034-035-100600-
COLUMBIA BASIN

CITY           SKY/WX    TMP DP  RH WIND       PRES   REMARKS
EPHRATA        MOCLDY    39  31  72 NW8       30.25F
MOSES LAKE     MOCLDY    35  31  85 SE3       30.27F
PASCO          MOCLDY    33  30  88 CALM      30.29F
HERMISTON, OR  MOCLDY    34  31  88 CALM      30.27F
$$

WAZ036>038-100600-
NORTHEAST WASHINGTON

CITY           SKY/WX    TMP DP  RH WIND       PRES   REMARKS
SPOKANE GEIGER PTCLDY    37  31  78 CALM      30.22F
SPOKANE FELTS  CLEAR     36  33  89 NE3       30.24F
FAIRCHILD AFB  CLEAR     37  33  85 CALM      30.22F
COEURDALENE,ID CLEAR     32  27  80 E6        30.23S
DEER PARK      CLEAR     31  29  92 NE5       30.23F
$$

WAZ029>033-100600-
SOUTHEAST WASHINGTON

CITY           SKY/WX    TMP DP  RH WIND       PRES   REMARKS
PULLMAN        CLEAR     37  33  85 CALM      30.27R
LEWISTON, ID   CLEAR     44  35  70 SW7       30.26R
WALLA WALLA    MOCLDY    36  33  89 NE6       30.26F
PENDLETON, OR  MOCLDY    34  32  92 E3        30.26R
$$




USA.gov is the U.S. government's official web portal to all federal, state and local government web resources and services.